FW2979 Weather Reports


Display with metric or nautical units.
time (UTC)temp
F
wind
direction
speed
MPH
gust
MPH
rain 1hr
in
rain 24hr
in
rain mn
in
humidity
%
barometer
mb
20200404091454 37 106 6.0 7.0 0.00 0.00 0.00 57 853.3
20200404091354 38 115 15.0 16.0 0.00 0.00 0.00 58 853.3
20200404091254 39 267 2.0 3.0 0.00 0.00 0.00 57 853.3
20200404091155 39 142 7.0 9.0 0.00 0.00 0.00 58 853.3
20200404091054 39 156 4.0 5.0 0.00 0.00 0.00 55 853.1
20200404090954 39 116 5.0 6.0 0.00 0.00 0.00 57 853.3
20200404090854 39 177 7.0 10.0 0.00 0.00 0.00 59 853.3
20200404090754 38 181 7.0 8.0 0.00 0.00 0.00 59 853.1
20200404090654 38 12 3.0 6.0 0.00 0.00 0.00 59 853.1
20200404090554 38 207 12.0 17.0 0.00 0.00 0.00 58 853.0
20200404090455 37 201 6.0 8.0 0.00 0.00 0.00 60 853.0
20200404090356 38 69 9.0 10.0 0.00 0.00 0.00 58 853.1
20200404090254 38 123 10.0 12.0 0.00 0.00 0.00 58 853.1
20200404090154 39 142 4.0 9.0 0.00 0.00 0.00 58 853.1
20200404090054 39 201 4.0 5.0 0.00 0.00 0.00 59 853.0
20200404085954 38 158 6.0 7.0 0.00 0.00 0.00 60 853.1
20200404085854 37 145 4.0 7.0 0.00 0.00 0.00 61 853.1
20200404085755 37 81 1.0 1.0 0.00 0.00 0.00 60 853.0
20200404085654 36 106 6.0 6.0 0.00 0.00 0.00 62 853.0
20200404085554 36 13 6.0 8.0 0.00 0.00 0.00 61 853.0
20200404085454 35 223 6.0 8.0 0.00 0.00 0.00 63 853.0
20200404085354 35 136 11.0 12.0 0.00 0.00 0.00 60 853.0
20200404085254 35 186 8.0 8.0 0.00 0.00 0.00 61 853.0
20200404085154 35 159 8.0 11.0 0.00 0.00 0.00 62 853.0
20200404085054 35 126 8.0 9.0 0.00 0.00 0.00 60 853.0
20200404084954 36 109 16.0 18.0 0.00 0.00 0.00 60 853.0
20200404084854 36 27 8.0 8.0 0.00 0.00 0.00 60 853.0
20200404084755 36 56 11.0 12.0 0.00 0.00 0.00 59 853.0
20200404084654 36 35 6.0 7.0 0.00 0.00 0.00 61 853.0
20200404084555 36 153 9.0 10.0 0.00 0.00 0.00 61 853.0
20200404084454 36 89 8.0 10.0 0.00 0.00 0.00 61 853.0
20200404084400 35 153 3.0 4.0 0.00 0.00 0.00 64 853.0
20200404084255 35 143 6.0 6.0 0.00 0.00 0.00 61 853.0
20200404084156 35 127 4.0 5.0 0.00 0.00 0.00 60 853.0
20200404084104 35 163 12.0 13.0 0.00 0.00 0.00 61 853.0
20200404083955 35 176 5.0 7.0 0.00 0.00 0.00 62 852.9
20200404083854 35 112 4.0 6.0 0.00 0.00 0.00 60 852.9
20200404083754 35 86 5.0 6.0 0.00 0.00 0.00 60 852.9
20200404083654 36 61 6.0 7.0 0.00 0.00 0.00 58 853.0
20200404083554 37 27 5.0 7.0 0.00 0.00 0.00 58 852.9
20200404083454 37 102 2.0 3.0 0.00 0.00 0.00 60 852.9
20200404083354 37 212 2.0 3.0 0.00 0.00 0.00 61 852.9
20200404083254 36 166 1.0 2.0 0.00 0.00 0.00 61 852.9
20200404083154 35 177 5.0 6.0 0.00 0.00 0.00 62 852.9
20200404083054 35 109 11.0 15.0 0.00 0.00 0.00 61 852.9
20200404082954 35 119 10.0 11.0 0.00 0.00 0.00 62 852.9
20200404082854 36 73 9.0 11.0 0.00 0.00 0.00 60 852.9
20200404082754 36 218 3.0 4.0 0.00 0.00 0.00 61 852.9
20200404082654 35 254 2.0 3.0 0.00 0.00 0.00 62 852.9
20200404082554 35 91 6.0 7.0 0.00 0.00 0.00 61 852.9
20200404082454 35 140 3.0 5.0 0.00 0.00 0.00 62 852.9
20200404082354 35 136 4.0 6.0 0.00 0.00 0.00 62 852.7
20200404082254 36 48 8.0 10.0 0.00 0.00 0.00 59 852.7
20200404082154 36 59 10.0 11.0 0.00 0.00 0.00 59 852.9
20200404082054 37 120 7.0 9.0 0.00 0.00 0.00 58 852.9
20200404081954 38 124 3.0 5.0 0.00 0.00 0.00 57 852.9
20200404081854 38 85 3.0 5.0 0.00 0.00 0.00 61 852.9
20200404081754 38 160 2.0 5.0 0.00 0.00 0.00 60 852.9
20200404081654 37 83 2.0 4.0 0.00 0.00 0.00 60 852.7
20200404081554 37 138 8.0 9.0 0.00 0.00 0.00 61 852.7
20200404081454 36 167 4.0 7.0 0.00 0.00 0.00 63 852.7
20200404081354 35 120 4.0 6.0 0.00 0.00 0.00 63 852.7
20200404081256 35 117 4.0 6.0 0.00 0.00 0.00 60 852.7
20200404081154 35 83 12.0 17.0 0.00 0.00 0.00 60 852.7
20200404081054 36 125 5.0 7.0 0.00 0.00 0.00 59 852.7
20200404080954 36 128 6.0 8.0 0.00 0.00 0.00 60 852.7
20200404080854 36 105 6.0 8.0 0.00 0.00 0.00 59 852.7
20200404080754 37 79 7.0 9.0 0.00 0.00 0.00 59 852.7
20200404080654 37 119 6.0 7.0 0.00 0.00 0.00 60 852.7
20200404080554 36 117 4.0 6.0 0.00 0.00 0.00 63 852.6
20200404080454 36 102 9.0 10.0 0.00 0.00 0.00 63 852.6
20200404080355 35 200 4.0 8.0 0.00 0.00 0.00 63 852.6
20200404080254 34 174 10.0 12.0 0.00 0.00 0.00 64 852.6
20200404080154 34 43 6.0 7.0 0.00 0.00 0.00 61 852.6
20200404080054 34 51 13.0 15.0 0.00 0.00 0.00 63 852.6
20200404075954 34 72 8.0 9.0 0.00 0.00 0.00 61 852.6
20200404075855 35 86 11.0 12.0 0.00 0.00 0.00 61 852.6
20200404075754 35 76 4.0 5.0 0.00 0.00 0.00 61 852.6
20200404075654 35 134 8.0 11.0 0.00 0.00 0.00 61 852.6
20200404075554 35 113 9.0 11.0 0.00 0.00 0.00 63 852.6
20200404075456 34 78 12.0 15.0 0.00 0.00 0.00 62 852.5
20200404075354 35 97 14.0 15.0 0.00 0.00 0.00 61 852.5
20200404075254 36 59 12.0 15.0 0.00 0.00 0.00 60 852.5
20200404075154 36 80 10.0 11.0 0.00 0.00 0.00 61 852.5
20200404075054 36 76 4.0 5.0 0.00 0.00 0.00 63 852.5
20200404074954 35 132 9.0 10.0 0.00 0.00 0.00 63 852.3
20200404074854 36 83 10.0 13.0 0.00 0.00 0.00 62 852.3
20200404074754 35 138 10.0 11.0 0.00 0.00 0.00 64 852.3
20200404074654 34 85 5.0 7.0 0.00 0.00 0.00 65 852.3
20200404074555 34 90 3.0 5.0 0.00 0.00 0.00 64 852.2
20200404074454 34 72 12.0 13.0 0.00 0.00 0.00 62 852.2
20200404074354 34 68 8.0 11.0 0.00 0.00 0.00 62 852.2
20200404074254 35 94 9.0 10.0 0.00 0.00 0.00 63 852.2
20200404074154 35 84 10.0 11.0 0.00 0.00 0.00 62 852.3
20200404074054 35 153 10.0 13.0 0.00 0.00 0.00 65 852.2
20200404073954 35 39 2.0 4.0 0.00 0.00 0.00 63 852.2
20200404073854 35 93 11.0 13.0 0.00 0.00 0.00 64 852.2
20200404073754 35 62 10.0 12.0 0.00 0.00 0.00 64 852.2
20200404073654 35 61 13.0 15.0 0.00 0.00 0.00 63 852.2
20200404073554 35 78 9.0 11.0 0.00 0.00 0.00 62 852.2
20200404073454 35 113 7.0 8.0 0.00 0.00 0.00 63 852.2
20200404073354 35 91 12.0 13.0 0.00 0.00 0.00 63 852.2
20200404073254 35 60 4.0 6.0 0.00 0.00 0.00 63 852.1
20200404073054 33 108 11.0 13.0 0.00 0.00 0.00 66 852.2
20200404072954 34 69 16.0 17.0 0.00 0.00 0.00 63 852.1
20200404072854 34 64 14.0 15.0 0.00 0.00 0.00 63 852.1
20200404072654 35 75 14.0 16.0 0.00 0.00 0.00 62 852.2
20200404072601 35 61 9.0 11.0 0.00 0.00 0.00 63 852.2
20200404072454 35 126 6.0 8.0 0.00 0.00 0.00 63 852.2
20200404072356 35 90 11.0 12.0 0.00 0.00 0.00 64 852.2
20200404072255 35 51 13.0 15.0 0.00 0.00 0.00 63 852.1
20200404072154 35 102 4.0 5.0 0.00 0.00 0.00 63 852.2
20200404072054 35 45 4.0 5.0 0.00 0.00 0.00 61 852.2
20200404071954 35 65 7.0 8.0 0.00 0.00 0.00 63 852.2
20200404071854 35 145 4.0 5.0 0.00 0.00 0.00 63 852.2
20200404071754 34 128 8.0 10.0 0.00 0.00 0.00 63 852.2
20200404071654 34 57 12.0 13.0 0.00 0.00 0.00 63 852.1
20200404071554 34 80 11.0 12.0 0.00 0.00 0.00 63 852.2
20200404071454 34 137 9.0 11.0 0.00 0.00 0.00 64 852.2
20200404071354 33 98 13.0 14.0 0.00 0.00 0.00 64 852.1
20200404071254 33 75 17.0 17.0 0.00 0.00 0.00 64 852.1
20200404071154 34 58 10.0 11.0 0.00 0.00 0.00 62 852.1
20200404071054 35 64 10.0 11.0 0.00 0.00 0.00 62 852.2
20200404070954 35 173 4.0 5.0 0.00 0.00 0.00 63 852.2
20200404070855 34 120 5.0 6.0 0.00 0.00 0.00 63 852.2
20200404070754 34 86 5.0 6.0 0.00 0.00 0.00 64 852.1
20200404070654 34 135 3.0 5.0 0.00 0.00 0.00 64 852.1
20200404070554 34 183 6.0 7.0 0.00 0.00 0.00 63 852.1
20200404070454 34 107 12.0 13.0 0.00 0.00 0.00 62 852.1
20200404070354 35 85 10.0 11.0 0.00 0.00 0.00 62 852.1
20200404070254 35 120 7.0 11.0 0.00 0.00 0.00 64 852.1
20200404070154 34 107 6.0 7.0 0.00 0.00 0.00 64 852.1
20200404070054 34 78 12.0 13.0 0.00 0.00 0.00 65 851.9
20200404065954 34 62 13.0 14.0 0.00 0.00 0.00 62 851.9
20200404065854 35 94 11.0 12.0 0.00 0.00 0.00 63 852.1
20200404065754 35 111 10.0 12.0 0.00 0.00 0.00 63 851.9
20200404065654 35 94 6.0 7.0 0.00 0.00 0.00 65 851.9
20200404065554 34 144 3.0 5.0 0.00 0.00 0.00 64 851.9
20200404065454 34 78 8.0 10.0 0.00 0.00 0.00 64 851.9
20200404065354 34 99 8.0 11.0 0.00 0.00 0.00 64 851.8
20200404065254 34 173 2.0 4.0 0.00 0.00 0.00 65 851.8
20200404065154 33 106 8.0 8.0 0.00 0.00 0.00 65 851.8
20200404065054 33 97 12.0 14.0 0.00 0.00 0.00 64 851.8
20200404064954 33 66 15.0 15.0 0.00 0.00 0.00 64 851.8
20200404064854 34 53 12.0 13.0 0.00 0.00 0.00 63 851.8
20200404064754 34 101 8.0 10.0 0.00 0.00 0.00 65 851.8
20200404064655 33 54 6.0 8.0 0.00 0.00 0.00 64 851.8
20200404064554 33 85 8.0 9.0 0.00 0.00 0.00 64 851.8
20200404064454 33 108 7.0 8.0 0.00 0.00 0.00 64 851.8
20200404064354 33 101 8.0 12.0 0.00 0.00 0.00 66 851.8
20200404064254 33 62 7.0 8.0 0.00 0.00 0.00 64 851.8
20200404064154 33 53 12.0 13.0 0.00 0.00 0.00 65 851.7
20200404064054 33 80 13.0 15.0 0.00 0.00 0.00 65 851.8
20200404063954 33 90 8.0 9.0 0.00 0.00 0.00 65 851.8
20200404063854 33 74 12.0 13.0 0.00 0.00 0.00 64 851.8
20200404063754 33 82 12.0 14.0 0.00 0.00 0.00 64 851.8
20200404063554 33 83 13.0 16.0 0.00 0.00 0.00 65 851.8
20200404063454 33 79 15.0 15.0 0.00 0.00 0.00 64 851.8
20200404063354 33 92 7.0 8.0 0.00 0.00 0.00 65 851.8
20200404063255 33 133 8.0 10.0 0.00 0.00 0.00 65 851.7
20200404063154 33 77 9.0 12.0 0.00 0.00 0.00 65 851.7
20200404063054 33 85 10.0 11.0 0.00 0.00 0.00 65 851.7
20200404062954 33 83 15.0 16.0 0.00 0.00 0.00 64 851.7
20200404062854 33 71 13.0 14.0 0.00 0.00 0.00 66 851.7
20200404062754 33 80 10.0 11.0 0.00 0.00 0.00 65 851.7
20200404062654 33 68 6.0 7.0 0.00 0.00 0.00 65 851.7
20200404062554 33 107 6.0 6.0 0.00 0.00 0.00 65 851.5
20200404062454 33 100 13.0 15.0 0.00 0.00 0.00 66 851.7
20200404062354 33 59 10.0 11.0 0.00 0.00 0.00 66 851.5
20200404062254 32 87 9.0 11.0 0.00 0.00 0.00 67 851.5
20200404062154 32 70 10.0 11.0 0.00 0.00 0.00 67 851.5
20200404062054 32 72 9.0 11.0 0.00 0.00 0.00 66 851.5
20200404061954 32 54 10.0 11.0 0.00 0.00 0.00 66 851.4
20200404061854 32 73 6.0 7.0 0.00 0.00 0.00 66 851.4
20200404061754 31 41 9.0 11.0 0.00 0.00 0.00 66 851.4
20200404061654 31 37 11.0 11.0 0.00 0.00 0.00 65 851.3
20200404061554 32 37 10.0 11.0 0.00 0.00 0.00 66 851.3
20200404061455 32 39 11.0 13.0 0.00 0.00 0.00 66 851.3
20200404061433 32 40 10.0 11.0 0.00 0.00 0.00 68 851.4
20200404061331 32 77 8.0 10.0 0.00 0.00 0.00 67 851.4
20200404061154 31 33 13.0 13.0 0.00 0.00 0.00 67 851.3
20200404061054 31 42 7.0 8.0 0.00 0.00 0.00 66 851.3
20200404060954 31 56 8.0 10.0 0.00 0.00 0.00 67 851.3
20200404060854 31 34 8.0 9.0 0.00 0.00 0.00 66 851.4
20200404060754 31 53 9.0 11.0 0.00 0.00 0.00 66 851.3
20200404060654 32 39 10.0 11.0 0.00 0.00 0.00 65 851.3
20200404060554 32 44 10.0 12.0 0.00 0.00 0.00 64 851.3
20200404060454 32 57 10.0 11.0 0.00 0.00 0.00 65 851.3
20200404060354 32 62 8.0 9.0 0.00 0.00 0.00 66 851.3
20200404060254 32 55 9.0 9.0 0.00 0.00 0.00 67 851.3
20200404060154 32 60 10.0 11.0 0.00 0.00 0.00 66 851.3
20200404060054 32 49 10.0 10.0 0.00 0.00 0.00 67 851.3
20200404055954 32 74 10.0 11.0 0.00 0.00 0.00 66 851.3
20200404055854 32 72 10.0 10.0 0.00 0.00 0.00 66 851.3
20200404055754 32 65 11.0 12.0 0.00 0.00 0.00 66 851.3
20200404055654 31 78 11.0 12.0 0.00 0.00 0.00 67 851.3
20200404055554 31 68 9.0 9.0 0.00 0.00 0.00 66 851.3
20200404055455 31 71 9.0 10.0 0.00 0.00 0.00 66 851.3
20200404055354 31 75 10.0 11.0 0.00 0.00 0.00 66 851.3
20200404055254 31 64 8.0 9.0 0.00 0.00 0.00 66 851.3
20200404055154 31 88 10.0 10.0 0.00 0.00 0.00 66 851.3
20200404055054 31 80 9.0 10.0 0.00 0.00 0.00 66 851.3
20200404054954 31 68 10.0 12.0 0.00 0.00 0.00 66 851.3
20200404054854 31 82 11.0 11.0 0.00 0.00 0.00 66 851.3
20200404054756 31 53 11.0 12.0 0.00 0.00 0.00 67 851.3
20200404054654 32 75 8.0 9.0 0.00 0.00 0.00 66 851.3
20200404054554 32 76 10.0 11.0 0.00 0.00 0.00 66 851.3
20200404054454 32 94 9.0 10.0 0.00 0.00 0.00 68 851.3
20200404054354 31 60 9.0 9.0 0.00 0.00 0.00 66 851.3
20200404054254 31 86 7.0 8.0 0.00 0.00 0.00 67 851.3
20200404054202 31 103 10.0 12.0 0.00 0.00 0.00 68 851.3
20200404054054 31 55 9.0 10.0 0.00 0.00 0.00 69 851.1
20200404053954 31 32 10.0 11.0 0.00 0.00 0.00 67 851.0
20200404053854 31 36 12.0 13.0 0.00 0.00 0.00 67 851.0
20200404053754 31 35 10.0 12.0 0.00 0.00 0.00 66 851.0
20200404053654 31 30 10.0 11.0 0.00 0.00 0.00 68 851.0
20200404053554 31 37 12.0 13.0 0.00 0.00 0.00 67 851.0
20200404053454 31 37 14.0 14.0 0.00 0.00 0.00 66 851.0
20200404053354 31 40 13.0 15.0 0.00 0.00 0.00 66 851.0
20200404053254 31 26 13.0 14.0 0.00 0.00 0.00 66 850.9
20200404053202 31 37 15.0 16.0 0.00 0.00 0.00 66 850.9
20200404053054 31 44 15.0 16.0 0.00 0.00 0.00 68 851.0
20200404052954 31 16 13.0 14.0 0.00 0.00 0.00 66 850.9
20200404052754 31 37 16.0 17.0 0.00 0.00 0.00 66 850.9
20200404052654 31 25 14.0 15.0 0.00 0.00 0.00 65 850.9
20200404052554 31 47 13.0 14.0 0.00 0.00 0.00 65 850.9
20200404052454 31 14 13.0 14.0 0.00 0.00 0.00 64 850.9
20200404052354 31 26 13.0 14.0 0.00 0.00 0.00 65 850.9
20200404052254 31 37 14.0 15.0 0.00 0.00 0.00 64 850.9
20200404052154 31 24 12.0 13.0 0.00 0.00 0.00 66 850.9
20200404052054 31 18 13.0 14.0 0.00 0.00 0.00 64 850.9
20200404051954 31 28 13.0 14.0 0.00 0.00 0.00 66 850.9
20200404051854 31 21 13.0 13.0 0.00 0.00 0.00 65 850.9
20200404051754 31 18 12.0 13.0 0.00 0.00 0.00 64 850.9
20200404051654 31 20 12.0 13.0 0.00 0.00 0.00 64 850.9
20200404051554 31 22 13.0 13.0 0.00 0.00 0.00 66 850.9
20200404051454 31 23 12.0 13.0 0.00 0.00 0.00 66 850.9
20200404051355 31 19 12.0 13.0 0.00 0.00 0.00 67 850.9
20200404051254 31 18 13.0 14.0 0.00 0.00 0.00 66 850.9
20200404051154 31 22 11.0 12.0 0.00 0.00 0.00 68 850.9
20200404051054 31 19 11.0 12.0 0.00 0.00 0.00 69 850.9
20200404050954 31 17 12.0 13.0 0.00 0.00 0.00 67 850.7
20200404050854 31 19 12.0 12.0 0.00 0.00 0.00 65 850.7
20200404050754 31 20 12.0 12.0 0.00 0.00 0.00 67 850.7
20200404050654 31 13 13.0 13.0 0.00 0.00 0.00 65 850.7
20200404050554 31 12 13.0 13.0 0.00 0.00 0.00 67 850.7
20200404050454 31 11 12.0 13.0 0.00 0.00 0.00 66 850.7
20200404050354 31 7 13.0 13.0 0.00 0.00 0.00 66 850.7
20200404050254 31 8 12.0 12.0 0.00 0.00 0.00 67 850.7
20200404050154 31 8 12.0 12.0 0.00 0.00 0.00 69 850.7
20200404050054 30 7 10.0 11.0 0.00 0.00 0.00 66 850.7
20200404045954 30 8 10.0 11.0 0.00 0.00 0.00 68 850.7
20200404045854 30 6 10.0 10.0 0.00 0.00 0.00 68 850.7
20200404045754 30 11 10.0 10.0 0.00 0.00 0.00 68 850.7
20200404045654 30 12 10.0 10.0 0.00 0.00 0.00 72 850.7
20200404045554 30 11 9.0 10.0 0.00 0.00 0.00 71 850.7
20200404045454 30 3 10.0 10.0 0.00 0.00 0.00 71 850.6
20200404045354 30 6 10.0 10.0 0.00 0.00 0.00 72 850.6
20200404045254 30 10 10.0 11.0 0.00 0.00 0.00 73 850.6
20200404045154 30 10 10.0 10.0 0.00 0.00 0.00 74 850.7
20200404045054 29 13 11.0 11.0 0.00 0.00 0.00 74 850.6
20200404044954 29 10 12.0 12.0 0.00 0.00 0.00 74 850.6
20200404044854 29 8 13.0 13.0 0.00 0.00 0.00 75 850.6
20200404044754 29 4 13.0 14.0 0.00 0.00 0.00 75 850.6
20200404044654 29 2 13.0 13.0 0.00 0.00 0.00 75 850.5
20200404044554 29 10 13.0 13.0 0.00 0.00 0.00 76 850.5
20200404044454 29 13 12.0 13.0 0.00 0.00 0.00 76 850.5
20200404044354 29 12 12.0 12.0 0.00 0.00 0.00 75 850.6
20200404044254 29 14 10.0 11.0 0.00 0.00 0.00 75 850.6
20200404044154 30 10 13.0 13.0 0.00 0.00 0.00 75 850.6
20200404044054 30 11 13.0 14.0 0.00 0.00 0.00 75 850.6
20200404043954 30 14 13.0 13.0 0.00 0.00 0.00 75 850.5
20200404043854 30 11 14.0 14.0 0.00 0.00 0.00 75 850.5
20200404043754 30 11 15.0 15.0 0.00 0.00 0.00 74 850.5
20200404043654 30 11 14.0 14.0 0.00 0.00 0.00 73 850.5
20200404043554 30 10 14.0 15.0 0.00 0.00 0.00 72 850.5
20200404043454 30 7 15.0 15.0 0.00 0.00 0.00 73 850.5
20200404043354 30 8 15.0 15.0 0.00 0.00 0.00 73 850.5
20200404043254 30 10 15.0 15.0 0.00 0.00 0.00 74 850.5
20200404043154 30 10 14.0 14.0 0.00 0.00 0.00 73 850.5
20200404043054 30 9 15.0 15.0 0.00 0.00 0.00 73 850.5
20200404042954 29 8 14.0 15.0 0.00 0.00 0.00 70 850.5
20200404042854 29 5 13.0 14.0 0.00 0.00 0.00 70 850.5
20200404042754 29 9 16.0 17.0 0.00 0.00 0.00 70 850.3
20200404042654 29 14 15.0 15.0 0.00 0.00 0.00 70 850.3
20200404042554 29 13 14.0 15.0 0.00 0.00 0.00 70 850.3
20200404042454 29 11 15.0 15.0 0.00 0.00 0.00 70 850.5
20200404042354 29 12 15.0 15.0 0.00 0.00 0.00 70 850.3
20200404042254 29 11 15.0 16.0 0.00 0.00 0.00 69 850.3
20200404042154 29 16 14.0 15.0 0.00 0.00 0.00 69 850.3
20200404042054 29 15 13.0 14.0 0.00 0.00 0.00 70 850.5
20200404041954 29 11 14.0 14.0 0.00 0.00 0.00 70 850.5
20200404041854 29 15 14.0 15.0 0.00 0.00 0.00 70 850.5
20200404041754 29 14 14.0 14.0 0.00 0.00 0.00 71 850.5
20200404041654 29 11 14.0 15.0 0.00 0.00 0.00 71 850.5
20200404041554 29 13 14.0 14.0 0.00 0.00 0.00 71 850.5
20200404041454 29 14 14.0 15.0 0.00 0.00 0.00 70 850.5
20200404041354 29 7 16.0 17.0 0.00 0.00 0.00 70 850.3
20200404041309 29 7 15.0 15.0 0.00 0.00 0.00 71 850.5
20200404041154 29 8 15.0 16.0 0.00 0.00 0.00 71 850.3
20200404041054 29 3 14.0 15.0 0.00 0.00 0.00 71 850.3
20200404040954 29 5 15.0 15.0 0.00 0.00 0.00 70 850.3
20200404040854 29 3 17.0 18.0 0.00 0.00 0.00 70 850.3
20200404040754 29 1 17.0 17.0 0.00 0.00 0.00 70 850.3
20200404040654 29 6 15.0 15.0 0.00 0.00 0.00 70 850.3
20200404040554 29 0 16.0 17.0 0.00 0.00 0.00 69 850.3
20200404040454 29 2 16.0 16.0 0.00 0.00 0.00 69 850.3
20200404040354 29 0 17.0 18.0 0.00 0.00 0.00 70 850.2
20200404040254 29 2 17.0 17.0 0.00 0.00 0.00 70 850.2
20200404040154 29 0 17.0 18.0 0.00 0.00 0.00 70 850.2
20200404040054 29 1 19.0 19.0 0.00 0.00 0.00 70 850.2
20200404035956 29 1 19.0 19.0 0.00 0.00 0.00 70 850.1
20200404035854 29 3 18.0 19.0 0.00 0.00 0.00 70 850.1
20200404035754 29 6 17.0 18.0 0.00 0.00 0.00 70 850.1
20200404035654 29 1 18.0 19.0 0.00 0.00 0.00 70 850.1
20200404035554 29 4 17.0 18.0 0.00 0.00 0.00 70 850.1
20200404035454 29 4 19.0 19.0 0.00 0.00 0.00 70 850.1
20200404035354 29 7 17.0 18.0 0.00 0.00 0.00 70 850.1
20200404035254 29 4 18.0 19.0 0.00 0.00 0.00 69 850.1
20200404035154 29 5 17.0 18.0 0.00 0.00 0.00 69 850.1
20200404035054 29 7 15.0 16.0 0.00 0.00 0.00 69 850.1
20200404034954 29 5 15.0 17.0 0.00 0.00 0.00 69 850.2
20200404034907 29 5 17.0 18.0 0.00 0.00 0.00 69 850.1
20200404034754 29 0 19.0 19.0 0.00 0.00 0.00 69 850.1
20200404034654 29 359 18.0 19.0 0.00 0.00 0.00 69 850.1
20200404034554 29 4 17.0 18.0 0.00 0.00 0.00 69 850.1
20200404034454 29 3 18.0 19.0 0.00 0.00 0.00 69 850.1
20200404034354 29 6 19.0 19.0 0.00 0.00 0.00 69 850.1
20200404034254 29 5 18.0 19.0 0.00 0.00 0.00 69 850.1
20200404034154 29 7 17.0 18.0 0.00 0.00 0.00 68 850.1
20200404034054 29 7 20.0 20.0 0.00 0.00 0.00 68 850.1
20200404033954 29 1 19.0 19.0 0.00 0.00 0.00 68 850.1
20200404033854 29 2 18.0 18.0 0.00 0.00 0.00 68 850.1
20200404033754 29 358 19.0 20.0 0.00 0.00 0.00 68 850.1
20200404033654 29 356 19.0 20.0 0.00 0.00 0.00 68 850.1
20200404033554 29 351 17.0 19.0 0.00 0.00 0.00 68 850.1
20200404033454 29 358 21.0 22.0 0.00 0.00 0.00 68 849.9
20200404033354 29 357 18.0 19.0 0.00 0.00 0.00 67 849.9
20200404033254 29 357 21.0 21.0 0.00 0.00 0.00 67 849.9
20200404033154 29 356 20.0 21.0 0.00 0.00 0.00 67 849.9
20200404033054 29 2 19.0 20.0 0.00 0.00 0.00 67 849.9
20200404032954 29 7 18.0 19.0 0.00 0.00 0.00 66 850.1
20200404032854 29 357 19.0 21.0 0.00 0.00 0.00 66 849.9
20200404032754 29 0 21.0 23.0 0.00 0.00 0.00 67 849.9
20200404032654 29 2 21.0 22.0 0.00 0.00 0.00 68 849.8
20200404032554 29 4 21.0 23.0 0.00 0.00 0.00 68 849.8
20200404032454 29 357 21.0 21.0 0.00 0.00 0.00 69 849.7
20200404032354 29 2 21.0 21.0 0.00 0.00 0.00 67 849.8
20200404032254 29 3 19.0 20.0 0.00 0.00 0.00 67 849.8
20200404032154 29 0 19.0 20.0 0.00 0.00 0.00 68 849.8
20200404032054 29 359 20.0 21.0 0.00 0.00 0.00 68 849.7
20200404031954 29 2 21.0 23.0 0.00 0.00 0.00 69 849.7
20200404031855 29 1 20.0 20.0 0.00 0.00 0.00 68 849.8
20200404031754 29 2 20.0 21.0 0.00 0.00 0.00 68 849.7
20200404031654 29 1 21.0 21.0 0.00 0.00 0.00 68 849.7
20200404031554 29 2 19.0 20.0 0.00 0.00 0.00 67 849.8
20200404031454 29 0 20.0 21.0 0.00 0.00 0.00 67 849.7
20200404031354 29 5 21.0 22.0 0.00 0.00 0.00 67 849.7
20200404031254 29 5 21.0 22.0 0.00 0.00 0.00 67 849.7
20200404031154 29 359 21.0 21.0 0.00 0.00 0.00 67 849.7
20200404031054 29 2 21.0 22.0 0.00 0.00 0.00 67 849.7
20200404030954 29 359 23.0 23.0 0.00 0.00 0.00 67 849.5
20200404030854 29 4 21.0 22.0 0.00 0.00 0.00 67 849.7
20200404030754 29 0 23.0 23.0 0.00 0.00 0.00 67 849.5
20200404030654 29 358 23.0 24.0 0.00 0.00 0.00 67 849.5
20200404030554 29 1 22.0 23.0 0.00 0.00 0.00 68 849.5
20200404030454 29 8 20.0 21.0 0.00 0.00 0.00 69 849.7
20200404030354 29 0 23.0 24.0 0.00 0.00 0.00 68 849.5
20200404030254 29 0 22.0 24.0 0.00 0.00 0.00 67 849.5
20200404030154 29 1 22.0 23.0 0.00 0.00 0.00 67 849.5
20200404030054 29 359 21.0 21.0 0.00 0.00 0.00 67 849.7
20200404025954 29 1 21.0 22.0 0.00 0.00 0.00 67 849.7
20200404025854 29 3 20.0 21.0 0.00 0.00 0.00 68 849.7
20200404025754 29 359 21.0 22.0 0.00 0.00 0.00 70 849.5
20200404025654 29 359 22.0 22.0 0.00 0.00 0.00 71 849.5
20200404025554 29 354 20.0 21.0 0.00 0.00 0.00 69 849.5
20200404025454 29 358 20.0 21.0 0.00 0.00 0.00 68 849.5
20200404025354 29 356 21.0 21.0 0.00 0.00 0.00 68 849.5
20200404025254 29 4 19.0 21.0 0.00 0.00 0.00 67 849.7
20200404025154 29 1 18.0 20.0 0.00 0.00 0.00 67 849.7
20200404025054 29 6 20.0 21.0 0.00 0.00 0.00 66 849.5
20200404024954 29 1 18.0 19.0 0.00 0.00 0.00 68 849.7
20200404024854 29 0 20.0 21.0 0.00 0.00 0.00 68 849.7
20200404024754 29 350 20.0 21.0 0.00 0.00 0.00 69 849.5
20200404024654 29 356 22.0 23.0 0.00 0.00 0.00 65 849.4
20200404024554 29 354 23.0 24.0 0.00 0.00 0.00 68 849.3
20200404024454 29 355 21.0 22.0 0.00 0.00 0.00 66 849.4
20200404024354 29 356 21.0 23.0 0.00 0.00 0.00 68 849.5
20200404024254 29 357 22.0 23.0 0.00 0.00 0.00 66 849.5
20200404024154 29 356 21.0 22.0 0.00 0.00 0.00 67 849.4
20200404024054 29 352 21.0 22.0 0.00 0.00 0.00 65 849.4
20200404023954 29 359 23.0 25.0 0.00 0.00 0.00 67 849.3
20200404023854 29 358 21.0 23.0 0.00 0.00 0.00 67 849.5
20200404023754 29 359 21.0 22.0 0.00 0.00 0.00 68 849.5
20200404023654 29 358 21.0 22.0 0.00 0.00 0.00 69 849.5
20200404023554 29 357 22.0 23.0 0.00 0.00 0.00 70 849.4
20200404023454 29 2 19.0 21.0 0.00 0.00 0.00 73 849.7
20200404023354 29 2 21.0 22.0 0.00 0.00 0.00 72 849.5
20200404023254 29 1 21.0 22.0 0.00 0.00 0.00 72 849.5
20200404023154 29 2 21.0 22.0 0.00 0.00 0.00 72 849.5
20200404023054 29 5 21.0 21.0 0.00 0.00 0.00 72 849.5
20200404022954 29 1 21.0 22.0 0.00 0.00 0.00 72 849.5
20200404022854 29 4 22.0 23.0 0.00 0.00 0.00 73 849.5
20200404022754 29 5 20.0 21.0 0.00 0.00 0.00 73 849.5
20200404022654 29 5 21.0 21.0 0.00 0.00 0.00 73 849.5
20200404022556 29 3 23.0 25.0 0.00 0.00 0.00 74 849.5
20200404022454 29 2 22.0 23.0 0.00 0.00 0.00 74 849.5
20200404022354 29 4 20.0 21.0 0.00 0.00 0.00 74 849.5
20200404022254 29 1 23.0 24.0 0.00 0.00 0.00 75 849.4
20200404022154 29 4 22.0 22.0 0.00 0.00 0.00 74 849.4
20200404022054 29 2 23.0 24.0 0.00 0.00 0.00 75 849.4
20200404021954 29 0 22.0 24.0 0.00 0.00 0.00 75 849.4
20200404021854 29 357 21.0 23.0 0.00 0.00 0.00 74 849.4
20200404021754 29 2 21.0 22.0 0.00 0.00 0.00 74 849.5
20200404021654 29 3 21.0 22.0 0.00 0.00 0.00 74 849.4
20200404021554 29 358 22.0 23.0 0.00 0.00 0.00 74 849.4
20200404021454 29 1 22.0 23.0 0.00 0.00 0.00 74 849.3
20200404021354 29 3 24.0 25.0 0.00 0.00 0.00 74 849.3
20200404021254 29 1 22.0 23.0 0.00 0.00 0.00 74 849.4
20200404021154 29 355 22.0 23.0 0.00 0.00 0.00 74 849.4
20200404021054 29 359 23.0 23.0 0.00 0.00 0.00 74 849.3
20200404020954 30 0 23.0 24.0 0.00 0.00 0.00 74 849.3
20200404020854 30 7 19.0 21.0 0.00 0.00 0.00 74 849.5
20200404020754 30 2 21.0 22.0 0.00 0.00 0.00 74 849.5
20200404020654 29 356 22.0 23.0 0.00 0.00 0.00 75 849.4
20200404020554 30 353 22.0 23.0 0.00 0.00 0.00 74 849.3
20200404020454 30 1 20.0 22.0 0.00 0.00 0.00 74 849.5
20200404020354 30 5 18.0 19.0 0.00 0.00 0.00 74 849.7
20200404020254 30 0 21.0 22.0 0.00 0.00 0.00 74 849.4
20200404020154 30 359 23.0 23.0 0.00 0.00 0.00 74 849.4
20200404020054 30 356 23.0 23.0 0.00 0.00 0.00 74 849.4
20200404015954 30 353 21.0 23.0 0.00 0.00 0.00 74 849.3
20200404015854 30 359 21.0 22.0 0.00 0.00 0.00 74 849.5
20200404015754 30 2 21.0 23.0 0.00 0.00 0.00 74 849.5
20200404015654 30 357 19.0 20.0 0.00 0.00 0.00 74 849.5
20200404015554 30 359 18.0 19.0 0.00 0.00 0.00 74 849.7
20200404015454 30 356 21.0 21.0 0.00 0.00 0.00 74 849.5
20200404015354 30 354 22.0 23.0 0.00 0.00 0.00 74 849.4
20200404015254 30 353 23.0 25.0 0.00 0.00 0.00 74 849.4
20200404015154 30 358 22.0 24.0 0.00 0.00 0.00 74 849.4
20200404015054 30 0 19.0 21.0 0.00 0.00 0.00 74 849.5
20200404014954 30 3 19.0 20.0 0.00 0.00 0.00 74 849.7
20200404014854 30 357 18.0 19.0 0.00 0.00 0.00 74 849.7
20200404014754 30 353 19.0 19.0 0.00 0.00 0.00 74 849.7
20200404014654 30 349 20.0 21.0 0.00 0.00 0.00 75 849.5
20200404014554 30 352 20.0 21.0 0.00 0.00 0.00 74 849.7
20200404014454 30 3 19.0 20.0 0.00 0.00 0.00 74 849.7
20200404014354 30 5 17.0 19.0 0.00 0.00 0.00 74 849.7
20200404014254 30 7 15.0 17.0 0.00 0.00 0.00 73 849.7
20200404014154 30 355 19.0 20.0 0.00 0.00 0.00 74 849.7
20200404014054 30 355 19.0 20.0 0.00 0.00 0.00 74 849.7
20200404013954 30 351 20.0 20.0 0.00 0.00 0.00 75 849.5
20200404013854 30 350 21.0 21.0 0.00 0.00 0.00 75 849.5
20200404013754 30 351 21.0 22.0 0.00 0.00 0.00 75 849.4
20200404013654 30 359 17.0 18.0 0.00 0.00 0.00 75 849.7
20200404013554 30 2 16.0 18.0 0.00 0.00 0.00 75 849.7
20200404013454 30 4 16.0 17.0 0.00 0.00 0.00 75 849.7
20200404013354 30 0 17.0 18.0 0.00 0.00 0.00 75 849.7
20200404013254 30 357 19.0 20.0 0.00 0.00 0.00 75 849.7
20200404013154 30 355 20.0 20.0 0.00 0.00 0.00 74 849.5
20200404013054 30 352 21.0 21.0 0.00 0.00 0.00 75 849.5
20200404012954 30 350 21.0 21.0 0.00 0.00 0.00 75 849.5
20200404012854 30 350 19.0 20.0 0.00 0.00 0.00 75 849.5
20200404012754 30 355 18.0 19.0 0.00 0.00 0.00 74 849.7
20200404012654 30 359 16.0 16.0 0.00 0.00 0.00 74 849.7
20200404012554 30 355 17.0 19.0 0.00 0.00 0.00 74 849.7
20200404012454 30 359 16.0 18.0 0.00 0.00 0.00 73 849.7
20200404012354 30 352 19.0 19.0 0.00 0.00 0.00 74 849.7
20200404012254 30 352 18.0 18.0 0.00 0.00 0.00 75 849.7
20200404012154 30 356 16.0 17.0 0.00 0.00 0.00 75 849.7
20200404012054 30 353 17.0 18.0 0.00 0.00 0.00 75 849.7
20200404011954 30 348 20.0 20.0 0.00 0.00 0.00 74 849.5
20200404011854 30 350 17.0 18.0 0.00 0.00 0.00 75 849.7
20200404011754 30 345 19.0 19.0 0.00 0.00 0.00 75 849.7
20200404011654 30 348 20.0 20.0 0.00 0.00 0.00 75 849.5
20200404011554 30 347 19.0 19.0 0.00 0.00 0.00 75 849.5
20200404011454 30 347 21.0 21.0 0.00 0.00 0.00 74 849.5
20200404011354 30 354 17.0 18.0 0.00 0.00 0.00 75 849.7
20200404011254 30 353 19.0 19.0 0.00 0.00 0.00 74 849.5
20200404011154 30 350 18.0 18.0 0.00 0.00 0.00 74 849.7
20200404011054 30 350 17.0 17.0 0.00 0.00 0.00 75 849.7
20200404010954 30 350 19.0 20.0 0.00 0.00 0.00 74 849.5
20200404010854 30 349 18.0 19.0 0.00 0.00 0.00 75 849.7
20200404010754 30 346 19.0 19.0 0.00 0.00 0.00 75 849.5
20200404010654 30 348 18.0 19.0 0.00 0.00 0.00 77 849.5
20200404010554 30 347 19.0 19.0 0.00 0.00 0.00 76 849.5
20200404010454 30 347 18.0 19.0 0.00 0.00 0.00 76 849.5
20200404010354 30 348 18.0 19.0 0.00 0.00 0.00 76 849.5
20200404010254 30 347 17.0 18.0 0.00 0.00 0.00 76 849.5
20200404010154 30 347 18.0 19.0 0.00 0.00 0.00 76 849.5
20200404010054 30 345 18.0 19.0 0.00 0.00 0.00 77 849.7
20200404005954 30 342 18.0 19.0 0.00 0.00 0.00 77 849.5
20200404005854 30 344 19.0 20.0 0.00 0.00 0.00 77 849.4
20200404005754 30 344 19.0 20.0 0.00 0.00 0.00 77 849.4
20200404005654 30 346 20.0 20.0 0.00 0.00 0.00 77 849.4
20200404005554 30 348 19.0 20.0 0.00 0.00 0.00 77 849.4
20200404005454 30 348 18.0 19.0 0.00 0.00 0.00 76 849.5
20200404005354 30 345 19.0 20.0 0.00 0.00 0.00 76 849.5
20200404005254 30 347 19.0 19.0 0.00 0.00 0.00 77 849.5
20200404005154 30 348 18.0 19.0 0.00 0.00 0.00 77 849.5
20200404005054 30 350 18.0 19.0 0.00 0.00 0.00 77 849.4
20200404004955 30 346 18.0 19.0 0.00 0.00 0.00 77 849.5
20200404004948 30 344 19.0 20.0 0.00 0.00 0.00 78 849.4
20200404004759 30 345 19.0 20.0 0.00 0.00 0.00 78 849.4
20200404004659 30 344 19.0 19.0 0.00 0.00 0.00 78 849.5
20200404004632 30 342 19.0 20.0 0.00 0.00 0.00 78 849.5
20200404004458 30 343 18.0 19.0 0.00 0.00 0.00 78 849.5
20200404004354 30 346 18.0 18.0 0.00 0.00 0.00 78 849.5
20200404004254 30 351 17.0 18.0 0.00 0.00 0.00 80 849.7
20200404004154 30 344 18.0 19.0 0.00 0.00 0.00 79 849.5
20200404004054 30 343 17.0 19.0 0.00 0.00 0.00 79 849.5
20200404003954 30 343 17.0 18.0 0.00 0.00 0.00 79 849.5
20200404003854 30 346 18.0 18.0 0.00 0.00 0.00 80 849.5
20200404003754 30 341 18.0 19.0 0.00 0.00 0.00 80 849.5
20200404003654 30 340 18.0 18.0 0.00 0.00 0.00 80 849.5
20200404003554 30 339 19.0 19.0 0.00 0.00 0.00 80 849.5
20200404003454 30 341 18.0 18.0 0.00 0.00 0.00 79 849.5
20200404003354 31 344 19.0 19.0 0.00 0.00 0.00 80 849.4
20200404003254 31 342 18.0 19.0 0.00 0.00 0.00 79 849.5
20200404003154 31 344 17.0 18.0 0.00 0.00 0.00 79 849.5
20200404003054 31 341 19.0 19.0 0.00 0.00 0.00 79 849.5
20200404002954 31 341 19.0 20.0 0.00 0.00 0.00 80 849.5
20200404002854 31 341 19.0 19.0 0.00 0.00 0.00 81 849.5
20200404002754 31 342 18.0 19.0 0.00 0.00 0.00 80 849.5
20200404002654 31 343 19.0 19.0 0.00 0.00 0.00 80 849.5
20200404002554 31 342 18.0 19.0 0.00 0.00 0.00 80 849.5
20200404002454 31 343 19.0 19.0 0.00 0.00 0.00 81 849.5
20200404002354 31 341 19.0 20.0 0.00 0.00 0.00 81 849.5
20200404002254 31 340 20.0 21.0 0.00 0.00 0.00 81 849.5
20200404002154 31 341 19.0 19.0 0.00 0.00 0.00 81 849.5
20200404002054 31 342 17.0 18.0 0.00 0.00 0.00 80 849.7
20200404001954 31 342 17.0 18.0 0.00 0.00 0.00 80 849.7
20200404001854 31 341 18.0 19.0 0.00 0.00 0.00 81 849.7
20200404001754 31 340 17.0 18.0 0.00 0.00 0.00 81 849.7
20200404001654 31 340 18.0 19.0 0.00 0.00 0.00 80 849.7
20200404001554 31 340 18.0 19.0 0.00 0.00 0.00 81 849.7
20200404001454 31 341 17.0 19.0 0.00 0.00 0.00 80 849.7
20200404001354 31 341 17.0 18.0 0.00 0.00 0.00 78 849.7
20200404001254 31 341 17.0 18.0 0.00 0.00 0.00 79 849.7
20200404001154 31 342 17.0 18.0 0.00 0.00 0.00 79 849.7
20200404001056 31 344 15.0 16.0 0.00 0.00 0.00 79 849.7
20200404000954 31 345 17.0 17.0 0.00 0.00 0.00 79 849.7
20200404000854 31 342 18.0 19.0 0.00 0.00 0.00 80 849.7
20200404000754 31 342 17.0 18.0 0.00 0.00 0.00 81 849.7
20200404000654 31 343 17.0 18.0 0.00 0.00 0.00 81 849.7
20200404000554 31 343 18.0 18.0 0.00 0.00 0.00 81 849.7
20200404000454 31 342 18.0 18.0 0.00 0.00 0.00 81 849.7
20200404000354 31 342 17.0 18.0 0.00 0.00 0.00 81 849.7
20200404000305 31 342 17.0 17.0 0.00 0.00 0.00 81 849.7
20200404000154 31 341 17.0 17.0 0.00 0.00 0.00 81 849.7
20200404000054 31 340 17.0 17.0 0.00 0.00 0.00 82 849.7
20200403235958 31 339 17.0 17.0 0.00 0.00 0.00 82 849.7
20200403235854 31 338 17.0 17.0 0.00 0.00 0.00 81 849.7
20200403235754 31 337 17.0 17.0 0.00 0.00 0.00 81 849.7
20200403235654 31 336 15.0 16.0 0.00 0.00 0.00 80 849.7
20200403235554 31 336 16.0 17.0 0.00 0.00 0.00 80 849.7
20200403235454 31 333 17.0 17.0 0.00 0.00 0.00 81 849.7
20200403235354 31 334 16.0 17.0 0.00 0.00 0.00 81 849.7
20200403235254 31 333 17.0 17.0 0.00 0.00 0.00 82 849.7
20200403235154 31 335 16.0 17.0 0.00 0.00 0.00 81 849.7
20200403235054 31 333 16.0 17.0 0.00 0.00 0.00 81 849.7
20200403234954 31 333 17.0 17.0 0.00 0.00 0.00 81 849.7
20200403234854 31 334 17.0 17.0 0.00 0.00 0.00 80 849.7
20200403234754 31 333 17.0 17.0 0.00 0.00 0.00 80 849.7
20200403234654 31 332 17.0 17.0 0.00 0.00 0.00 80 849.7
20200403234554 31 333 17.0 17.0 0.00 0.00 0.00 80 849.7
20200403234454 31 333 17.0 18.0 0.00 0.00 0.00 80 849.7
20200403234354 31 333 17.0 18.0 0.00 0.00 0.00 80 849.7
20200403234254 31 334 17.0 17.0 0.00 0.00 0.00 80 849.7
20200403234153 31 333 17.0 18.0 0.00 0.00 0.00 80 849.7
20200403234054 31 332 17.0 17.0 0.00 0.00 0.00 81 849.7
20200403233954 31 332 17.0 18.0 0.00 0.00 0.00 81 849.7
20200403233854 31 331 17.0 17.0 0.00 0.00 0.00 81 849.7
20200403233754 31 332 17.0 17.0 0.00 0.00 0.00 82 849.7
20200403233654 31 333 16.0 16.0 0.00 0.00 0.00 82 849.7
20200403233554 31 332 17.0 17.0 0.00 0.00 0.00 82 849.7
20200403233454 31 333 17.0 17.0 0.00 0.00 0.00 82 849.7
20200403233354 31 332 17.0 17.0 0.00 0.00 0.00 82 849.7
20200403233254 31 331 16.0 17.0 0.00 0.00 0.00 81 849.7
20200403233154 31 328 15.0 15.0 0.00 0.00 0.00 82 849.7
20200403233054 31 330 16.0 16.0 0.00 0.00 0.00 82 849.7
20200403232954 31 326 16.0 17.0 0.00 0.00 0.00 82 849.7
20200403232854 31 326 17.0 17.0 0.00 0.00 0.00 82 849.7
20200403232754 31 332 15.0 16.0 0.00 0.00 0.00 82 849.7
20200403232654 31 329 16.0 16.0 0.00 0.00 0.00 82 849.7
20200403232553 31 327 16.0 17.0 0.00 0.00 0.00 82 849.7
20200403232454 31 330 18.0 18.0 0.00 0.00 0.00 81 849.5
20200403232354 31 330 16.0 17.0 0.00 0.00 0.00 82 849.7
20200403232254 31 330 16.0 16.0 0.00 0.00 0.00 82 849.7
20200403232153 31 329 15.0 16.0 0.00 0.00 0.00 82 849.7
20200403231954 31 328 15.0 15.0 0.00 0.00 0.00 82 849.7
20200403231853 31 329 14.0 15.0 0.00 0.00 0.00 82 849.7
20200403231754 31 328 16.0 16.0 0.00 0.00 0.00 81 849.7
20200403231653 31 326 15.0 16.0 0.00 0.00 0.00 81 849.7
20200403231554 31 327 16.0 17.0 0.00 0.00 0.00 81 849.5
20200403231454 31 329 17.0 17.0 0.00 0.00 0.00 81 849.5
20200403231354 31 328 16.0 16.0 0.00 0.00 0.00 81 849.7
20200403231254 31 328 14.0 15.0 0.00 0.00 0.00 81 849.7
20200403231153 31 329 14.0 15.0 0.00 0.00 0.00 81 849.7
20200403231054 31 327 14.0 14.0 0.00 0.00 0.00 81 849.7
20200403230954 31 324 14.0 15.0 0.00 0.00 0.00 81 849.7
20200403230854 31 324 14.0 15.0 0.00 0.00 0.00 81 849.7
20200403230753 31 324 14.0 15.0 0.00 0.00 0.00 81 849.7
20200403230654 31 324 16.0 17.0 0.00 0.00 0.00 81 849.5
20200403230554 31 322 14.0 15.0 0.00 0.00 0.00 81 849.7
20200403230454 31 324 15.0 15.0 0.00 0.00 0.00 81 849.5
20200403230354 31 323 16.0 17.0 0.00 0.00 0.00 81 849.5
20200403230253 31 327 16.0 16.0 0.00 0.00 0.00 81 849.5
20200403230154 31 325 16.0 17.0 0.00 0.00 0.00 81 849.5
20200403230054 31 326 16.0 17.0 0.00 0.00 0.00 81 849.5
20200403225954 31 326 16.0 17.0 0.00 0.00 0.00 81 849.5
20200403225854 31 323 15.0 15.0 0.00 0.00 0.00 81 849.7
20200403225754 31 322 15.0 15.0 0.00 0.00 0.00 81 849.7
20200403225654 31 324 14.0 14.0 0.00 0.00 0.00 80 849.7
20200403225554 31 324 15.0 16.0 0.00 0.00 0.00 81 849.7
20200403225454 31 327 15.0 17.0 0.00 0.00 0.00 80 849.5
20200403225354 30 325 15.0 16.0 0.00 0.00 0.00 80 849.5
20200403225254 30 324 17.0 17.0 0.00 0.00 0.00 80 849.5
20200403225154 30 322 15.0 16.0 0.00 0.00 0.00 80 849.5
20200403225054 31 325 14.0 14.0 0.00 0.00 0.00 79 849.7
20200403224954 31 319 16.0 16.0 0.00 0.00 0.00 80 849.5
20200403224854 31 325 16.0 17.0 0.00 0.00 0.00 80 849.5
20200403224754 31 324 15.0 17.0 0.00 0.00 0.00 79 849.5
20200403224654 31 322 15.0 16.0 0.00 0.00 0.00 79 849.5
20200403224554 31 325 15.0 17.0 0.00 0.00 0.00 80 849.5
20200403224454 31 326 15.0 16.0 0.00 0.00 0.00 80 849.5
20200403224354 31 326 16.0 17.0 0.00 0.00 0.00 81 849.4
20200403224254 31 325 15.0 16.0 0.00 0.00 0.00 81 849.5
20200403224154 31 322 13.0 14.0 0.00 0.00 0.00 81 849.5
20200403224054 31 322 15.0 16.0 0.00 0.00 0.00 81 849.5
20200403223954 31 326 15.0 15.0 0.00 0.00 0.00 81 849.5
20200403223854 31 319 11.0 11.0 0.00 0.00 0.00 81 849.7
20200403223754 31 326 14.0 15.0 0.00 0.00 0.00 81 849.5
20200403223654 31 326 14.0 14.0 0.00 0.00 0.00 80 849.5
20200403223554 31 326 13.0 14.0 0.00 0.00 0.00 81 849.5
20200403223454 31 324 12.0 13.0 0.00 0.00 0.00 81 849.7
20200403223354 31 324 12.0 13.0 0.00 0.00 0.00 80 849.7
20200403223254 31 323 12.0 12.0 0.00 0.00 0.00 80 849.7
20200403223154 31 323 12.0 13.0 0.00 0.00 0.00 80 849.5
20200403223054 31 322 12.0 13.0 0.00 0.00 0.00 80 849.5
20200403222954 31 325 12.0 12.0 0.00 0.00 0.00 80 849.5
20200403222854 31 323 12.0 13.0 0.00 0.00 0.00 80 849.5
20200403222754 31 330 12.0 12.0 0.00 0.00 0.00 80 849.5
20200403222654 31 325 11.0 12.0 0.00 0.00 0.00 80 849.5
20200403222554 31 320 11.0 12.0 0.00 0.00 0.00 80 849.5
20200403222454 31 318 8.0 9.0 0.00 0.00 0.00 80 849.5
20200403222354 31 327 9.0 10.0 0.00 0.00 0.00 80 849.5
20200403222254 31 325 11.0 12.0 0.00 0.00 0.00 80 849.5
20200403222154 31 326 9.0 10.0 0.00 0.00 0.00 80 849.5
20200403222054 31 326 11.0 12.0 0.00 0.00 0.00 80 849.5
20200403221954 31 320 9.0 10.0 0.00 0.00 0.00 80 849.5
20200403221854 31 326 10.0 11.0 0.00 0.00 0.00 80 849.5
20200403221754 31 326 11.0 11.0 0.00 0.00 0.00 80 849.5
20200403221654 31 328 12.0 12.0 0.00 0.00 0.00 80 849.4
20200403221554 31 322 12.0 12.0 0.00 0.00 0.00 80 849.4
20200403221454 31 325 12.0 13.0 0.00 0.00 0.00 80 849.4
20200403221354 31 326 12.0 13.0 0.00 0.00 0.00 80 849.4
20200403221254 31 322 10.0 10.0 0.00 0.00 0.00 80 849.4
20200403221154 31 320 11.0 11.0 0.00 0.00 0.00 80 849.4
20200403221054 31 326 10.0 11.0 0.00 0.00 0.00 80 849.4
20200403220954 31 325 11.0 11.0 0.00 0.00 0.00 80 849.4
20200403220854 31 324 10.0 11.0 0.00 0.00 0.00 80 849.4
20200403220754 31 321 12.0 12.0 0.00 0.00 0.00 80 849.3
20200403220654 31 329 10.0 10.0 0.00 0.00 0.00 80 849.4
20200403220554 31 318 11.0 12.0 0.00 0.00 0.00 81 849.3
20200403220454 31 325 8.0 9.0 0.00 0.00 0.00 81 849.4
20200403220354 31 324 10.0 11.0 0.00 0.00 0.00 81 849.3
20200403220254 31 328 9.0 10.0 0.00 0.00 0.00 81 849.3
20200403220154 31 335 8.0 10.0 0.00 0.00 0.00 81 849.4
20200403220054 31 330 10.0 10.0 0.00 0.00 0.00 81 849.3
20200403215954 31 327 9.0 10.0 0.00 0.00 0.00 81 849.3
20200403215854 31 318 8.0 8.0 0.00 0.00 0.00 82 849.3
20200403215754 31 334 9.0 9.0 0.00 0.00 0.00 81 849.3
20200403215654 31 322 10.0 11.0 0.00 0.00 0.00 81 849.3
20200403215554 31 330 9.0 11.0 0.00 0.00 0.00 81 849.3
20200403215518 31 328 10.0 11.0 0.00 0.00 0.00 81 849.3
20200403215512 31 326 11.0 11.0 0.00 0.00 0.00 81 849.3
20200403215350 31 321 10.0 11.0 0.00 0.00 0.00 81 849.3
20200403215209 31 324 11.0 11.0 0.00 0.00 0.00 81 849.3
20200403215054 31 323 8.0 9.0 0.00 0.00 0.00 81 849.3
20200403214954 31 322 9.0 10.0 0.00 0.00 0.00 81 849.4
20200403214854 31 318 6.0 6.0 0.00 0.00 0.00 81 849.4
20200403214753 31 322 8.0 8.0 0.00 0.00 0.00 81 849.4
20200403214654 31 328 8.0 9.0 0.00 0.00 0.00 81 849.3
20200403214553 31 292 2.0 3.0 0.00 0.00 0.00 81 849.4
20200403214453 31 320 8.0 8.0 0.00 0.00 0.00 80 849.3
20200403214354 31 330 10.0 10.0 0.00 0.00 0.00 82 849.3
20200403214254 31 328 9.0 9.0 0.00 0.00 0.00 82 849.3
20200403214154 31 330 9.0 10.0 0.00 0.00 0.00 82 849.3
20200403214054 31 328 11.0 11.0 0.00 0.00 0.00 82 849.3
20200403213957 31 333 9.0 10.0 0.00 0.00 0.00 82 849.3
20200403213854 31 327 9.0 10.0 0.00 0.00 0.00 82 849.3
20200403213754 31 338 8.0 8.0 0.00 0.00 0.00 82 849.3
20200403213654 31 338 8.0 10.0 0.00 0.00 0.00 82 849.3
20200403213553 31 336 8.0 8.0 0.00 0.00 0.00 82 849.3
20200403213454 30 326 8.0 9.0 0.00 0.00 0.00 82 849.3
20200403213353 30 333 8.0 9.0 0.00 0.00 0.00 84 849.3
20200403213254 31 334 9.0 9.0 0.00 0.00 0.00 84 849.3
20200403213154 31 330 8.0 8.0 0.00 0.00 0.00 83 849.3
20200403213054 31 331 8.0 9.0 0.00 0.00 0.00 83 849.3
20200403212954 31 329 11.0 11.0 0.00 0.00 0.00 82 849.1
20200403212853 31 316 9.0 10.0 0.00 0.00 0.00 81 849.3
20200403212754 31 329 9.0 9.0 0.00 0.00 0.00 81 849.3
20200403212654 31 330 8.0 9.0 0.00 0.00 0.00 80 849.3
20200403212554 31 333 8.0 8.0 0.00 0.00 0.00 80 849.3
20200403212453 31 327 7.0 8.0 0.00 0.00 0.00 81 849.3
20200403212353 31 321 8.0 8.0 0.00 0.00 0.00 81 849.3
20200403212254 31 326 9.0 10.0 0.00 0.00 0.00 80 849.3
20200403212153 31 329 7.0 7.0 0.00 0.00 0.00 80 849.3
20200403212054 31 327 8.0 8.0 0.00 0.00 0.00 81 849.3
20200403211955 31 329 7.0 8.0 0.00 0.00 0.00 81 849.3
20200403211853 31 318 7.0 8.0 0.00 0.00 0.00 81 849.3
20200403211654 31 320 7.0 7.0 0.00 0.00 0.00 81 849.3
20200403211554 31 329 5.0 6.0 0.00 0.00 0.00 83 849.3
20200403211454 31 327 7.0 7.0 0.00 0.00 0.00 82 849.1
20200403211353 31 325 9.0 9.0 0.00 0.00 0.00 83 849.1
20200403211254 31 329 8.0 8.0 0.00 0.00 0.00 83 849.1
20200403211154 31 330 7.0 9.0 0.00 0.00 0.00 83 849.1
20200403211054 31 325 6.0 7.0 0.00 0.00 0.00 83 849.1
20200403210953 30 319 8.0 9.0 0.00 0.00 0.00 82 849.1
20200403210854 31 326 8.0 9.0 0.00 0.00 0.00 84 849.1
20200403210753 31 329 9.0 10.0 0.00 0.00 0.00 82 849.0
20200403210654 31 326 9.0 10.0 0.00 0.00 0.00 83 849.0
20200403210553 31 324 9.0 9.0 0.00 0.00 0.00 81 849.1
20200403210454 30 320 10.0 11.0 0.00 0.00 0.00 80 849.0
20200403210353 30 332 11.0 11.0 0.00 0.00 0.00 79 849.0
20200403210254 30 331 10.0 10.0 0.00 0.00 0.00 79 849.0
20200403210153 30 332 11.0 12.0 0.00 0.00 0.00 79 849.0
20200403210053 30 326 11.0 12.0 0.00 0.00 0.00 79 849.0
20200403205953 30 330 11.0 12.0 0.00 0.00 0.00 79 849.0
20200403205854 30 330 10.0 11.0 0.00 0.00 0.00 79 849.0
20200403205753 30 330 12.0 12.0 0.00 0.00 0.00 79 849.0
20200403205654 30 325 12.0 12.0 0.00 0.00 0.00 80 849.0
20200403205553 30 329 13.0 14.0 0.00 0.00 0.00 80 848.9
20200403205454 30 324 12.0 12.0 0.00 0.00 0.00 80 848.9
20200403205354 30 324 11.0 12.0 0.00 0.00 0.00 80 849.0
20200403205253 30 320 11.0 12.0 0.00 0.00 0.00 80 849.0
20200403205154 30 324 12.0 13.0 0.00 0.00 0.00 80 848.9
20200403205053 30 325 10.0 11.0 0.00 0.00 0.00 80 848.9
20200403204954 30 326 12.0 12.0 0.00 0.00 0.00 80 848.9
20200403204853 30 320 12.0 13.0 0.00 0.00 0.00 80 848.9
20200403204754 30 323 13.0 13.0 0.00 0.00 0.00 80 848.9
20200403204653 30 324 14.0 14.0 0.00 0.00 0.00 80 848.9
20200403204555 30 329 14.0 15.0 0.00 0.00 0.00 80 848.9
20200403204454 30 326 13.0 14.0 0.00 0.00 0.00 81 848.9
20200403204353 30 326 15.0 16.0 0.00 0.00 0.00 82 848.9
20200403204256 31 324 13.0 14.0 0.00 0.00 0.00 83 848.9
20200403204153 31 325 14.0 14.0 0.00 0.00 0.00 83 848.9
20200403204053 31 323 13.0 14.0 0.00 0.00 0.00 83 848.9
20200403203953 31 322 12.0 12.0 0.00 0.00 0.00 82 848.9
20200403203853 31 325 11.0 11.0 0.00 0.00 0.00 83 848.9
20200403203753 31 324 13.0 14.0 0.00 0.00 0.00 83 848.9
20200403203654 31 322 12.0 12.0 0.00 0.00 0.00 83 848.9
20200403203553 31 323 11.0 12.0 0.00 0.00 0.00 83 848.9
20200403203453 31 329 10.0 11.0 0.00 0.00 0.00 83 848.9
20200403203353 31 330 9.0 10.0 0.00 0.00 0.00 83 848.9
20200403203253 31 327 10.0 10.0 0.00 0.00 0.00 82 848.9
20200403203153 31 326 10.0 10.0 0.00 0.00 0.00 83 848.9
20200403203053 31 326 9.0 10.0 0.00 0.00 0.00 83 848.9
20200403202953 31 324 9.0 10.0 0.00 0.00 0.00 83 848.9
20200403202854 31 322 10.0 10.0 0.00 0.00 0.00 83 848.9
20200403202754 31 318 8.0 9.0 0.00 0.00 0.00 83 848.9
20200403202654 31 316 7.0 8.0 0.00 0.00 0.00 83 848.9
20200403202554 31 315 8.0 8.0 0.00 0.00 0.00 83 848.9
20200403202453 31 314 6.0 7.0 0.00 0.00 0.00 83 848.9
20200403202354 31 304 6.0 7.0 0.00 0.00 0.00 83 848.9
20200403202253 31 305 6.0 6.0 0.00 0.00 0.00 83 849.0
20200403202154 31 301 8.0 8.0 0.00 0.00 0.00 83 848.9
20200403202054 31 303 7.0 7.0 0.00 0.00 0.00 82 848.9
20200403201954 31 289 5.0 6.0 0.00 0.00 0.00 82 849.0
20200403201853 31 297 8.0 8.0 0.00 0.00 0.00 82 848.9
20200403201754 31 298 6.0 7.0 0.00 0.00 0.00 82 848.9
20200403201653 31 301 7.0 8.0 0.00 0.00 0.00 82 848.9
20200403201554 31 308 7.0 8.0 0.00 0.00 0.00 82 848.9
20200403201453 31 312 9.0 10.0 0.00 0.00 0.00 81 848.9
20200403201353 31 312 8.0 9.0 0.00 0.00 0.00 81 848.9
20200403201253 31 314 9.0 9.0 0.00 0.00 0.00 81 848.9
20200403201154 31 319 10.0 10.0 0.00 0.00 0.00 81 848.9
20200403201053 31 316 9.0 10.0 0.00 0.00 0.00 80 848.9
20200403200954 31 318 7.0 8.0 0.00 0.00 0.00 81 848.9
20200403200853 31 317 7.0 8.0 0.00 0.00 0.00 81 848.9
20200403200755 31 317 8.0 8.0 0.00 0.00 0.00 82 848.9
20200403200653 31 312 8.0 9.0 0.00 0.00 0.00 81 848.9
20200403200554 31 308 8.0 9.0 0.00 0.00 0.00 81 848.9
20200403200454 31 316 8.0 8.0 0.00 0.00 0.00 81 848.9
20200403200353 31 316 8.0 8.0 0.00 0.00 0.00 80 848.9
20200403200253 31 309 8.0 9.0 0.00 0.00 0.00 81 848.9
20200403200153 31 312 9.0 9.0 0.00 0.00 0.00 80 848.9
20200403200054 31 310 8.0 8.0 0.00 0.00 0.00 80 848.9
20200403195953 31 309 8.0 8.0 0.00 0.00 0.00 81 848.9
20200403195854 31 313 9.0 10.0 0.00 0.00 0.00 81 848.9
20200403195753 31 313 9.0 10.0 0.00 0.00 0.00 81 848.9
20200403195654 31 311 9.0 9.0 0.00 0.00 0.00 80 848.9
20200403195554 31 307 8.0 9.0 0.00 0.00 0.00 80 848.9
20200403195455 31 310 9.0 10.0 0.00 0.00 0.00 80 848.7
20200403195304 31 310 10.0 10.0 0.00 0.00 0.00 80 848.7
20200403195201 31 311 10.0 10.0 0.00 0.00 0.00 80 848.7
20200403195100 31 309 10.0 10.0 0.00 0.00 0.00 80 848.7
20200403195001 31 309 10.0 11.0 0.00 0.00 0.00 80 848.7
20200403194901 31 310 10.0 10.0 0.00 0.00 0.00 80 848.7
20200403194801 31 309 9.0 10.0 0.00 0.00 0.00 80 848.7
20200403194701 31 309 10.0 11.0 0.00 0.00 0.00 80 848.7
20200403194601 31 304 11.0 12.0 0.00 0.00 0.00 80 848.7
20200403194500 31 306 9.0 10.0 0.00 0.00 0.00 80 848.9
20200403194401 31 299 10.0 11.0 0.00 0.00 0.00 80 848.7
20200403194301 31 306 12.0 12.0 0.00 0.00 0.00 80 848.7
20200403194201 31 305 11.0 12.0 0.00 0.00 0.00 80 848.7
20200403194101 31 307 10.0 10.0 0.00 0.00 0.00 80 848.7
20200403194001 31 307 12.0 13.0 0.00 0.00 0.00 80 848.7
20200403193901 31 313 12.0 13.0 0.00 0.00 0.00 80 848.6
20200403193801 31 311 12.0 12.0 0.00 0.00 0.00 80 848.7
20200403193701 31 312 10.0 11.0 0.00 0.00 0.00 80 848.7
20200403193602 31 315 12.0 13.0 0.00 0.00 0.00 80 848.6
20200403184033 31 313 14.0 15.0 0.00 0.00 0.00 82 848.3
20200403183933 31 311 12.0 13.0 0.00 0.00 0.00 82 848.3
20200403183833 31 312 16.0 17.0 0.00 0.00 0.00 82 848.2
20200403183733 31 319 13.0 14.0 0.00 0.00 0.00 82 848.3
20200403183633 31 315 13.0 15.0 0.00 0.00 0.00 82 848.2
20200403183533 31 314 15.0 15.0 0.00 0.00 0.00 82 848.2
20200403183433 31 319 14.0 14.0 0.00 0.00 0.00 82 848.2
20200403183333 31 312 12.0 15.0 0.00 0.00 0.00 81 848.2
20200403183233 31 307 12.0 14.0 0.00 0.00 0.00 81 848.3
20200403183133 31 318 14.0 15.0 0.00 0.00 0.00 81 848.2
20200403183033 31 311 14.0 14.0 0.00 0.00 0.00 81 848.3
20200403182933 31 310 14.0 15.0 0.00 0.00 0.00 81 848.2
20200403182833 31 310 12.0 13.0 0.00 0.00 0.00 82 848.3
20200403182733 31 315 14.0 15.0 0.00 0.00 0.00 82 848.2
20200403182633 31 320 15.0 15.0 0.00 0.00 0.00 82 848.3
20200403182533 31 309 11.0 12.0 0.00 0.00 0.00 82 848.3
20200403182433 31 306 12.0 13.0 0.00 0.00 0.00 82 848.3
20200403182333 31 318 12.0 13.0 0.00 0.00 0.00 82 848.3
20200403182234 31 310 12.0 13.0 0.00 0.00 0.00 81 848.3
20200403182133 31 308 11.0 12.0 0.00 0.00 0.00 82 848.3
20200403182033 31 310 12.0 12.0 0.00 0.00 0.00 81 848.3
20200403181933 31 307 11.0 12.0 0.00 0.00 0.00 81 848.3
20200403181833 31 313 11.0 12.0 0.00 0.00 0.00 81 848.3
20200403181733 31 315 12.0 13.0 0.00 0.00 0.00 81 848.3
20200403181633 31 334 8.0 9.0 0.00 0.00 0.00 80 848.5
20200403181533 31 279 2.0 2.0 0.00 0.00 0.00 80 848.5
20200403181433 31 310 10.0 10.0 0.00 0.00 0.00 80 848.3
20200403181333 31 320 5.0 7.0 0.00 0.00 0.00 80 848.3
20200403181233 31 331 8.0 8.0 0.00 0.00 0.00 80 848.3
20200403181133 32 314 4.0 4.0 0.00 0.00 0.00 81 848.5
20200403181033 32 272 3.0 5.0 0.00 0.00 0.00 81 848.5
20200403180933 32 344 5.0 6.0 0.00 0.00 0.00 81 848.3
20200403180833 32 323 2.0 2.0 0.00 0.00 0.00 81 848.5
20200403180733 32 315 4.0 5.0 0.00 0.00 0.00 81 848.5
20200403180633 32 210 5.0 6.0 0.00 0.00 0.00 81 848.5
20200403180533 32 281 4.0 6.0 0.00 0.00 0.00 81 848.5
20200403180433 32 310 5.0 6.0 0.00 0.00 0.00 81 848.5
20200403180233 32 335 4.0 5.0 0.00 0.00 0.00 81 848.3
20200403180133 32 339 4.0 4.0 0.00 0.00 0.00 81 848.3
20200403180033 32 324 3.0 3.0 0.00 0.00 0.00 81 848.3
20200403175932 32 282 3.0 4.0 0.00 0.00 0.00 81 848.3
20200403175833 32 248 4.0 4.0 0.00 0.00 0.00 81 848.3
20200403175733 32 266 6.0 6.0 0.00 0.00 0.00 81 848.3
20200403175633 32 267 6.0 7.0 0.00 0.00 0.00 81 848.3
20200403175533 32 273 6.0 7.0 0.00 0.00 0.00 80 848.3
20200403175433 32 288 5.0 5.0 0.00 0.00 0.00 81 848.3
20200403175333 32 287 3.0 4.0 0.00 0.00 0.00 81 848.3
20200403175239 32 256 2.0 3.0 0.00 0.00 0.00 81 848.2
20200403175134 32 279 2.0 2.0 0.00 0.00 0.00 81 848.2
20200403175034 32 275 3.0 4.0 0.00 0.00 0.00 81 848.2
20200403174933 32 285 3.0 4.0 0.00 0.00 0.00 80 848.2
20200403174835 32 268 2.0 3.0 0.00 0.00 0.00 80 848.2
20200403174733 32 257 4.0 4.0 0.00 0.00 0.00 81 848.2
20200403174633 32 265 4.0 5.0 0.00 0.00 0.00 81 848.2
20200403174533 32 259 4.0 4.0 0.00 0.00 0.00 81 848.2
20200403174433 32 254 3.0 4.0 0.00 0.00 0.00 81 848.1
20200403174333 32 235 2.0 2.0 0.00 0.00 0.00 81 848.1
20200403174233 32 251 4.0 5.0 0.00 0.00 0.00 81 848.1
20200403174133 32 247 4.0 4.0 0.00 0.00 0.00 81 848.1
20200403174033 32 240 3.0 4.0 0.00 0.00 0.00 81 848.1
20200403173933 32 259 3.0 3.0 0.00 0.00 0.00 81 848.1
20200403173833 32 267 3.0 4.0 0.00 0.00 0.00 81 848.1
20200403173733 32 283 3.0 4.0 0.00 0.00 0.00 80 848.1
20200403173633 32 286 4.0 5.0 0.00 0.00 0.00 80 848.1
20200403173533 32 274 4.0 4.0 0.00 0.00 0.00 80 848.1
20200403173433 32 308 2.0 2.0 0.00 0.00 0.00 80 848.1
20200403173333 32 270 2.0 2.0 0.00 0.00 0.00 80 848.1
20200403173233 32 277 4.0 4.0 0.00 0.00 0.00 80 848.1
20200403173133 32 254 4.0 5.0 0.00 0.00 0.00 80 848.1
20200403173033 32 282 6.0 7.0 0.00 0.00 0.00 80 848.1
20200403172933 32 267 7.0 8.0 0.00 0.00 0.00 80 848.1
20200403172833 32 287 8.0 9.0 0.00 0.00 0.00 80 848.1
20200403172732 32 278 6.0 8.0 0.00 0.00 0.00 80 848.1
20200403172633 32 281 8.0 9.0 0.00 0.00 0.00 79 847.9
20200403172533 32 279 9.0 10.0 0.00 0.00 0.00 80 847.9
20200403172433 32 256 6.0 7.0 0.00 0.00 0.00 80 848.1
20200403172332 32 283 8.0 10.0 0.00 0.00 0.00 80 848.1
20200403172233 32 284 6.0 7.0 0.00 0.00 0.00 80 848.1
20200403172133 32 281 6.0 6.0 0.00 0.00 0.00 80 848.1
20200403172032 32 277 5.0 6.0 0.00 0.00 0.00 80 848.1
20200403171932 32 282 7.0 8.0 0.00 0.00 0.00 80 848.1
20200403171833 32 282 8.0 9.0 0.00 0.00 0.00 80 847.9
20200403171733 32 281 10.0 11.0 0.00 0.00 0.00 80 847.9
20200403171633 32 285 8.0 9.0 0.00 0.00 0.00 80 847.9
20200403171533 32 294 8.0 10.0 0.00 0.00 0.00 80 847.9
20200403171433 32 302 7.0 8.0 0.00 0.00 0.00 80 847.9
20200403171333 32 322 6.0 6.0 0.00 0.00 0.00 80 847.9
20200403171233 32 310 5.0 6.0 0.00 0.00 0.00 79 847.9
20200403171033 32 312 6.0 6.0 0.00 0.00 0.00 80 847.9
20200403170933 32 321 6.0 7.0 0.00 0.00 0.00 80 847.9
20200403170833 32 315 6.0 6.0 0.00 0.00 0.00 79 847.8
20200403170733 32 301 6.0 7.0 0.00 0.00 0.00 79 847.9
20200403170633 32 300 6.0 6.0 0.00 0.00 0.00 78 847.8
20200403170533 32 306 4.0 5.0 0.00 0.00 0.00 78 847.9
20200403170432 32 285 4.0 5.0 0.00 0.00 0.00 78 847.8
20200403170333 32 281 4.0 5.0 0.00 0.00 0.00 77 847.8
20200403170233 32 287 4.0 5.0 0.00 0.00 0.00 77 847.8
20200403170132 32 270 5.0 5.0 0.00 0.00 0.00 77 847.8
20200403170033 32 280 4.0 4.0 0.00 0.00 0.00 77 847.8
20200403165933 32 272 6.0 7.0 0.00 0.00 0.00 76 847.7
20200403165833 32 277 5.0 6.0 0.00 0.00 0.00 76 847.7
20200403165733 32 273 4.0 5.0 0.00 0.00 0.00 75 847.7
20200403165633 32 264 5.0 6.0 0.00 0.00 0.00 75 847.7
20200403165533 32 253 7.0 7.0 0.00 0.00 0.00 75 847.7
20200403165433 32 269 5.0 5.0 0.00 0.00 0.00 74 847.7
20200403165333 32 270 5.0 6.0 0.00 0.00 0.00 74 847.7
20200403165232 32 260 4.0 4.0 0.00 0.00 0.00 74 847.7
20200403165133 32 267 4.0 4.0 0.00 0.00 0.00 74 847.7
20200403165033 32 270 4.0 4.0 0.00 0.00 0.00 74 847.7
20200403164933 33 250 4.0 4.0 0.00 0.00 0.00 74 847.7
20200403164833 33 245 4.0 4.0 0.00 0.00 0.00 74 847.7
20200403164733 33 247 3.0 3.0 0.00 0.00 0.00 74 847.7
20200403164633 33 259 3.0 3.0 0.00 0.00 0.00 74 847.7
20200403164532 33 261 4.0 4.0 0.00 0.00 0.00 74 847.7
20200403164433 33 258 4.0 4.0 0.00 0.00 0.00 74 847.7
20200403164333 33 253 3.0 3.0 0.00 0.00 0.00 74 847.7
20200403164233 33 250 4.0 4.0 0.00 0.00 0.00 74 847.7
20200403164133 33 251 2.0 3.0 0.00 0.00 0.00 73 847.7
20200403164032 33 243 3.0 3.0 0.00 0.00 0.00 73 847.7
20200403163933 33 246 2.0 3.0 0.00 0.00 0.00 73 847.7
20200403163833 33 251 4.0 4.0 0.00 0.00 0.00 73 847.7
20200403163750 33 241 3.0 3.0 0.00 0.00 0.00 73 847.7
20200403163743 33 276 2.0 3.0 0.00 0.00 0.00 73 847.7
20200403163629 33 260 4.0 5.0 0.00 0.00 0.00 73 847.7
20200403163433 33 252 4.0 4.0 0.00 0.00 0.00 72 847.7
20200403163332 33 248 3.0 4.0 0.00 0.00 0.00 72 847.7
20200403163233 33 246 4.0 4.0 0.00 0.00 0.00 72 847.7
20200403163133 33 255 4.0 5.0 0.00 0.00 0.00 71 847.7
20200403163035 34 251 4.0 5.0 0.00 0.00 0.00 71 847.7
20200403162933 34 253 3.0 4.0 0.00 0.00 0.00 71 847.7
20200403162832 34 224 3.0 3.0 0.00 0.00 0.00 71 847.7
20200403162733 34 245 4.0 5.0 0.00 0.00 0.00 71 847.7
20200403162633 34 238 4.0 5.0 0.00 0.00 0.00 71 847.7
20200403162533 34 274 1.0 3.0 0.00 0.00 0.00 71 847.7
20200403162433 34 256 2.0 3.0 0.00 0.00 0.00 73 847.7
20200403162332 34 273 4.0 5.0 0.00 0.00 0.00 74 847.7
20200403162233 35 256 6.0 6.0 0.00 0.00 0.00 73 847.7
20200403162133 35 273 4.0 6.0 0.00 0.00 0.00 75 847.7
20200403162033 35 297 4.0 5.0 0.00 0.00 0.00 75 847.7
20200403161932 35 293 3.0 6.0 0.00 0.00 0.00 74 847.5
20200403161833 35 313 5.0 6.0 0.00 0.00 0.00 74 847.5
20200403161733 35 326 6.0 6.0 0.00 0.00 0.00 74 847.5
20200403161633 35 327 5.0 6.0 0.00 0.00 0.00 74 847.5
20200403161533 35 332 4.0 5.0 0.00 0.00 0.00 73 847.5
20200403161432 35 297 4.0 5.0 0.00 0.00 0.00 74 847.5
20200403161332 35 282 5.0 6.0 0.00 0.00 0.00 74 847.5
20200403161233 35 344 6.0 6.0 0.00 0.00 0.00 73 847.5
20200403161133 35 292 4.0 6.0 0.00 0.00 0.00 73 847.5
20200403161033 35 275 9.0 11.0 0.00 0.00 0.00 73 847.4
20200403160933 35 257 4.0 6.0 0.00 0.00 0.00 73 847.5
20200403160833 35 325 6.0 6.0 0.00 0.00 0.00 73 847.5
20200403160733 35 266 8.0 9.0 0.00 0.00 0.00 72 847.5
20200403160632 36 320 9.0 9.0 0.00 0.00 0.00 71 847.5
20200403160533 36 305 10.0 10.0 0.00 0.00 0.00 72 847.5
20200403160432 36 300 6.0 10.0 0.00 0.00 0.00 73 847.5
20200403160332 36 315 4.0 7.0 0.00 0.00 0.00 72 847.5
20200403160233 36 350 5.0 6.0 0.00 0.00 0.00 70 847.5
20200403160132 36 334 6.0 7.0 0.00 0.00 0.00 70 847.4
20200403160032 36 317 5.0 6.0 0.00 0.00 0.00 71 847.5
20200403155933 36 323 3.0 4.0 0.00 0.00 0.00 72 847.5
20200403155832 36 300 6.0 8.0 0.00 0.00 0.00 72 847.4
20200403155732 36 339 4.0 5.0 0.00 0.00 0.00 70 847.4
20200403155632 36 319 6.0 7.0 0.00 0.00 0.00 70 847.4
20200403155532 36 328 4.0 4.0 0.00 0.00 0.00 69 847.4
20200403155433 36 312 2.0 2.0 0.00 0.00 0.00 72 847.4
20200403155332 36 329 3.0 5.0 0.00 0.00 0.00 70 847.4
20200403155232 36 337 4.0 4.0 0.00 0.00 0.00 70 847.4
20200403155133 36 310 6.0 7.0 0.00 0.00 0.00 72 847.4
20200403155032 36 264 8.0 11.0 0.00 0.00 0.00 71 847.4
20200403154933 36 333 5.0 6.0 0.00 0.00 0.00 72 847.4
20200403154832 36 270 8.0 11.0 0.00 0.00 0.00 71 847.4
20200403154732 36 317 5.0 6.0 0.00 0.00 0.00 70 847.4
20200403154633 36 338 3.0 3.0 0.00 0.00 0.00 70 847.5
20200403154532 36 341 6.0 6.0 0.00 0.00 0.00 71 847.4
20200403154432 36 270 3.0 5.0 0.00 0.00 0.00 71 847.4
20200403154332 36 265 6.0 7.0 0.00 0.00 0.00 70 847.4
20200403154232 35 277 4.0 6.0 0.00 0.00 0.00 71 847.4
20200403154133 35 311 7.0 8.0 0.00 0.00 0.00 73 847.4
20200403154033 35 318 7.0 8.0 0.00 0.00 0.00 73 847.4
20200403153933 35 344 3.0 4.0 0.00 0.00 0.00 71 847.4
20200403153832 35 14 4.0 4.0 0.00 0.00 0.00 71 847.4
20200403153733 35 352 1.0 2.0 0.00 0.00 0.00 71 847.4
20200403153633 35 58 2.0 2.0 0.00 0.00 0.00 68 847.4
20200403153533 35 37 2.0 3.0 0.00 0.00 0.00 69 847.4
20200403153433 35 22 2.0 3.0 0.00 0.00 0.00 69 847.4
20200403153333 35 44 2.0 3.0 0.00 0.00 0.00 69 847.4
20200403153233 35 7 3.0 3.0 0.00 0.00 0.00 68 847.4
20200403153135 35 16 4.0 4.0 0.00 0.00 0.00 68 847.4
20200403152933 35 26 2.0 2.0 0.00 0.00 0.00 68 847.4
20200403152849 35 41 3.0 3.0 0.00 0.00 0.00 68 847.4
20200403152735 35 38 5.0 5.0 0.00 0.00 0.00 68 847.4
20200403152635 35 44 5.0 5.0 0.00 0.00 0.00 68 847.4
20200403152433 35 53 4.0 5.0 0.00 0.00 0.00 68 847.4
20200403152333 35 47 4.0 5.0 0.00 0.00 0.00 67 847.4
20200403152232 35 48 6.0 6.0 0.00 0.00 0.00 67 847.4
20200403152133 35 36 6.0 6.0 0.00 0.00 0.00 67 847.4
20200403151736 35 48 4.0 4.0 0.00 0.00 0.00 66 847.4
20200403151433 35 57 2.0 2.0 0.00 0.00 0.00 68 847.3
20200403151334 35 41 3.0 3.0 0.00 0.00 0.00 68 847.3
20200403151143 35 17 2.0 2.0 0.00 0.00 0.00 68 847.3
20200403150754 35 38 2.0 3.0 0.00 0.00 0.00 70 847.3
20200403150638 35 68 3.0 3.0 0.00 0.00 0.00 70 847.3
20200403150432 35 87 3.0 4.0 0.00 0.00 0.00 70 847.3
20200403150337 35 74 5.0 5.0 0.00 0.00 0.00 69 847.3
20200403150032 35 61 7.0 7.0 0.00 0.00 0.00 71 847.3
20200403145932 35 359 4.0 5.0 0.00 0.00 0.00 70 847.3
20200403145832 35 14 7.0 7.0 0.00 0.00 0.00 70 847.3
20200403145733 36 6 7.0 7.0 0.00 0.00 0.00 70 847.3
20200403145632 36 34 6.0 7.0 0.00 0.00 0.00 69 847.3
20200403145532 36 35 5.0 6.0 0.00 0.00 0.00 69 847.3
20200403145432 36 0 4.0 4.0 0.00 0.00 0.00 69 847.3
20200403145332 36 336 3.0 3.0 0.00 0.00 0.00 68 847.3
20200403145233 36 345 4.0 5.0 0.00 0.00 0.00 68 847.3
20200403144507 36 3 3.0 3.0 0.00 0.00 0.00 68 847.3
20200403143838 37 213 3.0 4.0 0.00 0.00 0.00 64 847.3
20200403143640 37 14 6.0 8.0 0.00 0.00 0.00 63 847.1
20200403143313 38 76 4.0 5.0 0.00 0.00 0.00 62 847.3
20200403141742 41 278 2.0 4.0 0.00 0.00 0.00 60 847.3
20200403141642 41 243 4.0 7.0 0.00 0.00 0.00 61 847.3
20200403141541 41 288 4.0 5.0 0.00 0.00 0.00 60 847.1
20200403141338 40 242 6.0 10.0 0.00 0.00 0.00 63 847.1
20200403141238 40 338 3.0 4.0 0.00 0.00 0.00 62 847.1
20200403141141 39 317 4.0 6.0 0.00 0.00 0.00 65 847.1
20200403140944 38 276 3.0 5.0 0.00 0.00 0.00 64 847.1
20200403140842 37 225 0.0 1.0 0.00 0.00 0.00 62 847.0
20200403133403 41 68 1.0 2.0 0.00 0.00 0.00 58 847.3
20200403133303 41 212 3.0 4.0 0.00 0.00 0.00 58 847.3
20200403133204 41 279 2.0 4.0 0.00 0.00 0.00 60 847.3
20200403133104 41 326 6.0 8.0 0.00 0.00 0.00 61 847.3
20200403133003 40 355 2.0 6.0 0.00 0.00 0.00 60 847.3
20200403132903 39 321 6.0 7.0 0.00 0.00 0.00 64 847.3
20200403132808 38 317 2.0 2.0 0.00 0.00 0.00 66 847.3
20200403132704 37 324 2.0 2.0 0.00 0.00 0.00 63 847.3
20200403132603 37 330 2.0 3.0 0.00 0.00 0.00 64 847.1
20200403132407 37 331 8.0 9.0 0.00 0.00 0.00 61 847.0
20200403132304 37 12 8.0 8.0 0.00 0.00 0.00 64 847.1
20200403124139 40 251 17.0 17.0 0.00 0.00 0.00 57 846.9
20200403124039 40 244 10.0 10.0 0.00 0.00 0.00 60 847.0
20200403123840 41 252 10.0 10.0 0.00 0.00 0.00 55 847.0
20200403123548 41 202 5.0 7.0 0.00 0.00 0.00 60 847.1
20200403123447 40 128 4.0 6.0 0.00 0.00 0.00 59 847.0
20200403123347 41 227 7.0 8.0 0.00 0.00 0.00 58 847.0
20200403123247 40 276 2.0 4.0 0.00 0.00 0.00 58 847.0
20200403123147 40 194 5.0 7.0 0.00 0.00 0.00 60 847.1
20200403122947 40 248 8.0 10.0 0.00 0.00 0.00 58 847.0
20200403122848 41 234 3.0 4.0 0.00 0.00 0.00 56 847.1
20200403113641 37 256 8.0 10.0 0.00 0.00 0.00 61 847.0
20200403113146 38 239 9.0 14.0 0.00 0.00 0.00 62 847.0
20200403112946 40 216 11.0 11.0 0.00 0.00 0.00 58 847.1
20200403112741 40 211 8.0 10.0 0.00 0.00 0.00 60 847.1
20200403112540 39 242 5.0 7.0 0.00 0.00 0.00 60 847.0
20200403112340 39 239 5.0 7.0 0.00 0.00 0.00 58 847.0
20200403111842 39 190 4.0 5.0 0.00 0.00 0.00 62 847.1
20200403111541 38 224 9.0 12.0 0.00 0.00 0.00 63 847.0
20200403111442 38 267 4.0 4.0 0.00 0.00 0.00 64 847.0
20200403111339 36 247 2.0 3.0 0.00 0.00 0.00 66 847.0
20200403111144 36 180 7.0 8.0 0.00 0.00 0.00 63 847.0
20200403110641 37 179 7.0 7.0 0.00 0.00 0.00 64 847.0
20200403110247 36 206 4.0 5.0 0.00 0.00 0.00 62 847.1
20200403110151 37 215 6.0 8.0 0.00 0.00 0.00 62 847.1
20200403110040 38 224 11.0 13.0 0.00 0.00 0.00 62 847.0
20200403105841 38 214 12.0 15.0 0.00 0.00 0.00 62 847.0
20200403105541 36 172 3.0 4.0 0.00 0.00 0.00 64 847.1
20200403105440 36 201 9.0 11.0 0.00 0.00 0.00 64 847.0
20200403105240 36 237 1.0 4.0 0.00 0.00 0.00 63 847.1
20200403105046 37 203 8.0 8.0 0.00 0.00 0.00 61 847.1
20200403104943 38 245 10.0 11.0 0.00 0.00 0.00 60 847.1
20200403104844 39 220 7.0 9.0 0.00 0.00 0.00 60 847.1
20200403103841 37 117 5.0 5.0 0.00 0.00 0.00 60 847.1
20200403103742 37 196 7.0 8.0 0.00 0.00 0.00 62 847.0
20200403103339 38 188 6.0 10.0 0.00 0.00 0.00 62 847.0
20200403103238 38 166 8.0 10.0 0.00 0.00 0.00 61 847.0
20200403103139 37 227 5.0 8.0 0.00 0.00 0.00 64 847.0
20200403103038 37 215 14.0 17.0 0.00 0.00 0.00 60 846.9
20200403102838 37 216 4.0 6.0 0.00 0.00 0.00 63 847.1
20200403102739 37 227 5.0 7.0 0.00 0.00 0.00 61 847.0
20200403102639 38 232 3.0 5.0 0.00 0.00 0.00 61 847.0
20200403102538 38 227 8.0 10.0 0.00 0.00 0.00 63 847.0
20200403102439 37 215 6.0 8.0 0.00 0.00 0.00 65 847.0
20200403102339 36 191 6.0 8.0 0.00 0.00 0.00 65 847.0
20200403102238 36 189 5.0 7.0 0.00 0.00 0.00 62 847.0
20200403102139 36 113 4.0 5.0 0.00 0.00 0.00 60 847.0
20200403102039 36 186 4.0 5.0 0.00 0.00 0.00 63 847.0
20200403101938 36 167 3.0 3.0 0.00 0.00 0.00 62 847.0
20200403101839 37 232 7.0 8.0 0.00 0.00 0.00 60 847.0
20200403101739 37 213 7.0 8.0 0.00 0.00 0.00 63 847.0
20200403101639 37 187 9.0 12.0 0.00 0.00 0.00 63 847.0
20200403101539 37 184 5.0 8.0 0.00 0.00 0.00 62 847.0
20200403101439 37 198 9.0 12.0 0.00 0.00 0.00 61 847.0
20200403101338 38 178 11.0 13.0 0.00 0.00 0.00 60 847.0
20200403101239 37 204 10.0 10.0 0.00 0.00 0.00 63 846.9
20200403101139 37 211 12.0 15.0 0.00 0.00 0.00 63 846.9
20200403101039 36 203 7.0 10.0 0.00 0.00 0.00 63 846.9
20200403100939 36 231 4.0 6.0 0.00 0.00 0.00 63 846.9
20200403100838 36 201 6.0 8.0 0.00 0.00 0.00 63 846.9
20200403100739 36 308 2.0 3.0 0.00 0.00 0.00 62 846.9
20200403100639 36 255 3.0 4.0 0.00 0.00 0.00 62 846.9
20200403100539 36 230 3.0 4.0 0.00 0.00 0.00 62 847.0
20200403100438 36 201 6.0 7.0 0.00 0.00 0.00 62 847.0
20200403100422 36 215 5.0 6.0 0.00 0.00 0.00 60 847.0
20200403100417 37 212 10.0 11.0 0.00 0.00 0.00 61 847.0
20200403100223 37 221 9.0 10.0 0.00 0.00 0.00 61 846.9
20200403100057 38 215 6.0 8.0 0.00 0.00 0.00 60 847.0
20200403095939 38 211 6.0 7.0 0.00 0.00 0.00 61 846.9
20200403095839 38 192 6.0 8.0 0.00 0.00 0.00 61 846.9
20200403095739 38 202 6.0 7.0 0.00 0.00 0.00 61 846.9
20200403095639 38 183 5.0 7.0 0.00 0.00 0.00 62 846.9
20200403095439 37 205 8.0 10.0 0.00 0.00 0.00 61 846.9
20200403095338 36 196 5.0 7.0 0.00 0.00 0.00 64 846.9
20200403095239 36 170 5.0 6.0 0.00 0.00 0.00 63 846.9
20200403095139 35 185 5.0 6.0 0.00 0.00 0.00 62 846.9
20200403095039 36 194 9.0 10.0 0.00 0.00 0.00 61 846.9
20200403094939 36 195 10.0 12.0 0.00 0.00 0.00 62 846.9
20200403094839 36 235 12.0 13.0 0.00 0.00 0.00 62 846.9
20200403094739 36 236 6.0 7.0 0.00 0.00 0.00 63 846.9
20200403094638 36 214 10.0 11.0 0.00 0.00 0.00 60 846.9
20200403094539 36 240 9.0 11.0 0.00 0.00 0.00 62 846.9
20200403094338 37 170 8.0 10.0 0.00 0.00 0.00 60 846.9
20200403094239 37 179 10.0 12.0 0.00 0.00 0.00 60 846.9
20200403094139 37 195 7.0 8.0 0.00 0.00 0.00 61 846.9
20200403094039 36 194 5.0 5.0 0.00 0.00 0.00 60 846.9
20200403093939 37 211 8.0 10.0 0.00 0.00 0.00 61 846.9
20200403093838 36 180 9.0 9.0 0.00 0.00 0.00 62 846.9
20200403093738 36 212 6.0 8.0 0.00 0.00 0.00 62 846.9
20200403093638 36 213 7.0 9.0 0.00 0.00 0.00 60 846.9
20200403093539 36 202 6.0 9.0 0.00 0.00 0.00 63 846.9
20200403093338 36 206 6.0 7.0 0.00 0.00 0.00 63 846.9
20200403093238 36 223 8.0 11.0 0.00 0.00 0.00 63 846.9
20200403093138 36 221 8.0 10.0 0.00 0.00 0.00 62 846.9
20200403093039 35 209 7.0 8.0 0.00 0.00 0.00 62 846.9
20200403092938 35 219 9.0 11.0 0.00 0.00 0.00 63 846.9
20200403092842 35 225 5.0 6.0 0.00 0.00 0.00 63 846.9
20200403092740 35 238 5.0 6.0 0.00 0.00 0.00 62 846.9
20200403092712 36 181 10.0 12.0 0.00 0.00 0.00 60 846.9
20200403092559 35 229 12.0 14.0 0.00 0.00 0.00 64 846.9
20200403092338 35 236 4.0 5.0 0.00 0.00 0.00 64 846.9
20200403092239 35 220 10.0 12.0 0.00 0.00 0.00 62 846.9
20200403092138 35 224 6.0 6.0 0.00 0.00 0.00 62 846.9
20200403092039 35 220 10.0 11.0 0.00 0.00 0.00 62 846.9
20200403091938 36 224 12.0 14.0 0.00 0.00 0.00 62 846.9
20200403091839 36 220 8.0 9.0 0.00 0.00 0.00 62 846.7